STARLINK-37042, 68266

Orbit data source: Space-Track

STARLINK-37042, 68266 is a payload satellite owned by SpaceX/Seattle (US) in LEO that was launched on Thu, 19 Mar 2026 UTC via an FALCON 9 launch vehicle from the Air Force Eastern Test Range (AFETR). Payload-class satellites include a variety of spacecraft equipped with specific instruments for various scientific and technological missions. These include communications satellites like Starlink; space stations such as the ISS; scientific satellites like the Hubble; Earth observation satellites from companies like Planet Labs, Umbra, and HawkEye 360; GPS; miniature CubeSats for education and research; and military/defense satellites.

Loading next visibility...
Identifier
68266, 2026-055E
Orbit
LEO
Country
Flag of USUS
Related business
Manufacturer
SpaceX/Seattle
Mission
Operational spacecraft
Bus & Motor
STARLINK V2MO, Unknown motor
Mass
575 kg wet, ~530 kg dry
Launch date (UTC)
2026-03-19 (3 months ago)
Launch vehicle
FALCON 9
Launch site
Air Force Eastern Test Range (AFETR)
Object type
Payload
Rocket body
Debris
Shape & HBR
Unknown shape, 17.7 m
Radar Cross Section
Large (>1 m²)

Expand to show TLE details & history
Last TLE update: 12 hours ago

TLE from 12 hours ago
0 STARLINK-37042
1 68266U 26055E   26171.36696236  .00018447  00000-0  55549-3 0  9999
2 68266  53.1574 200.7572 0000851  79.0361 281.0738 15.34414321 15674
Epoch: 2026-06-20T08:48Z
TLE epoch observation values (Epoch: 2026-06-20T08:48:25.547Z)
Latitude
0.00001°
Longitude
160.06816°
Altitude
463.45 km
Speed
7.636 km/s
True Right ascension
13h 23m 01s
True Declination
0° 00' 00"
Sunlit
Object was in daylight at epoch
Visualization orbit readout
Latitude
Unknown
Longitude
Unknown
Altitude
Unknown
Speed
Unknown
Apparent Right ascension
Unknown
Apparent Declination
Unknown
Sunlit
N/A
Visualization observer readout
Local Sidereal Time
07:14:50
Azimuth
Unknown
Elevation
Unknown
Doppler factor
Unknown
Orbital elements
Apogee altitude
463.5 km
Perigee altitude
462.336 km
Semi-major axis
6,841.055 km
Eccentricity
0.00009
Inclination
53.1574°
RAAN
200.7572°
Arg. of periapsis
79.0361°
True anomaly
281.06423°
Mean anomaly
281.0738°
Eccentric anomaly
281.06901°
Mean motion
3.83582 °/min
Orbital period
93.85 mins
BSTAR
0.00055549
Loading maneuver chart data...
Computing Atmospheric mass density...
Loading historical data...
Loading historical data...
Loading historical data...
Loading historical data...
Loading historical data...
Loading historical data...
Loading historical data...

Documentation

Showing up to 5 results
|